Blountville, TN

7:54 PM EST on February 19, 2017 (GMT -0500)
Tri-Cities Regional Tennessee / Virginia

Weather History for KTRI - October, 2014

Change the Weather History Date:

Friday, October 24, 2014

  Actual Average Record
Temperature  
Mean Temperature 51 °F 54 °F  
Max Temperature 65 °F 67 °F 84 °F (1963)
Min Temperature 37 °F 41 °F 27 °F (2006)
Degree Days  
Heating Degree Days 14 11  
Month to date heating degree days 168 195  
Since 1 July heating degree days 179 248  
Cooling Degree Days 0 0  
Month to date cooling degree days 9 9  
Year to date cooling degree days 1141 977  
Moisture  
Dew Point 40 °F    
Average Humidity 69    
Maximum Humidity 100    
Minimum Humidity 37    
Precipitation  
Precipitation 0.00 in 0.07 in 0.96 in (1971)
Month to date precipitation 5.68 1.57  
Year to date precipitation 32.14 34.01  
Snow  
Snow 0.00 in 0.00 in - ()
Month to date snowfall 0.0 0.0  
Since 1 July snowfall 0.0 0.0  
Since 1 September snowfall 0.0 0.0  
Snow Depth 0.00 in    
Sea Level Pressure  
Sea Level Pressure 30.08 in    
Wind  
Wind Speed 1 mph (NNW)    
Max Wind Speed 7 mph    
Max Gust Speed 10 mph    
Visibility 7 miles    
Events Fog    
T = Trace of Precipitation, MM = Missing Value Source: NWS Daily Summary

Daily Weather History Graph

Daily Weather History Graph

Search for Another Location

Airport or City:

Trip Planner

Search our weather history database for the weather conditions in past years. The results will help you decide how hot, cold, wet, or windy it might be!

Date:

Astronomy

Oct. 24, 2014 Rise Set
Actual Time 7:45 AM EDT 6:41 PM EDT
Civil Twilight 7:18 AM EDT 7:08 PM EDT
Nautical Twilight 6:48 AM EDT 7:38 PM EDT
Astronomical Twilight 6:18 AM EDT 8:08 PM EDT
Moon 8:22 AM EDT (10/24) 7:22 PM EDT (10/24)
Length of Visible Light 11h 49m
Length of Day
10h 56m
New Moon, 1% of the Moon is Illuminated
Oct 24
New Moon
Oct 30
First Quarter
Nov 6
Full
Nov 14
Last Quarter
Nov 22
New

Hourly Weather History & Observations

Time (EDT) Temp. Windchill Dew Point Humidity Pressure Visibility Wind Dir Wind Speed Gust Speed Precip Events Conditions
12:53 AM 41.0 °F - 39.0 °F 93% 30.10 in 7.0 mi Calm Calm - N/A   Scattered Clouds
1:53 AM 39.9 °F - 37.9 °F 93% 30.10 in 5.0 mi Calm Calm - N/A   Scattered Clouds
2:53 AM 37.9 °F 35.5 °F 37.0 °F 97% 30.10 in 5.0 mi NNE 3.5 mph - N/A   Partly Cloudy
3:53 AM 39.9 °F - 37.9 °F 93% 30.09 in 6.0 mi Calm Calm - N/A   Partly Cloudy
4:53 AM 39.2 °F - 37.4 °F 93% 30.11 in 6.0 mi Calm Calm - N/A   Partly Cloudy
5:53 AM 39.9 °F - 37.9 °F 93% 30.09 in 5.0 mi Calm Calm - N/A   Partly Cloudy
6:09 AM 37.0 °F - 36.0 °F 96% 30.12 in 2.5 mi Calm Calm - N/A   Partly Cloudy
6:35 AM 37.9 °F - 37.0 °F 97% 30.12 in 2.5 mi Calm Calm - N/A   Mostly Cloudy
6:53 AM 37.9 °F - 37.0 °F 97% 30.10 in 0.5 mi Calm Calm - N/A Fog Mostly Cloudy
7:20 AM 37.9 °F - 37.0 °F 97% 30.13 in 2.0 mi Calm Calm - N/A   Scattered Clouds
7:53 AM 37.9 °F - 36.0 °F 93% 30.11 in 6.0 mi Calm Calm - N/A   Mostly Cloudy
8:53 AM 39.9 °F - 39.0 °F 97% 30.13 in 1.0 mi Calm Calm - N/A   Overcast
9:02 AM 39.9 °F - 39.9 °F 100% 30.14 in 0.1 mi Calm Calm - N/A Fog Fog
9:44 AM 43.0 °F 40.3 °F 42.1 °F 97% 30.14 in 1.0 mi ENE 4.6 mph - N/A   Overcast
9:53 AM 44.1 °F - 42.1 °F 93% 30.12 in 4.0 mi Calm Calm - N/A   Mostly Cloudy
10:53 AM 48.0 °F - 42.1 °F 80% 30.11 in 10.0 mi East 3.5 mph - N/A   Overcast
11:53 AM 51.1 °F - 44.1 °F 77% 30.10 in 10.0 mi Calm Calm - N/A   Mostly Cloudy
12:53 PM 57.0 °F - 44.1 °F 62% 30.07 in 10.0 mi Calm Calm - N/A   Mostly Cloudy
1:53 PM 62.1 °F - 43.0 °F 50% 30.04 in 10.0 mi NW 3.5 mph - N/A   Scattered Clouds
2:53 PM 63.0 °F - 41.0 °F 45% 30.03 in 10.0 mi NW 4.6 mph - N/A   Mostly Cloudy
3:53 PM 64.0 °F - 39.0 °F 40% 30.02 in 10.0 mi Variable 3.5 mph - N/A   Mostly Cloudy
4:53 PM 64.9 °F - 37.9 °F 37% 30.01 in 10.0 mi Calm Calm - N/A   Scattered Clouds
5:53 PM 63.0 °F - 39.9 °F 43% 30.00 in 10.0 mi West 5.8 mph - N/A   Partly Cloudy
6:53 PM 55.0 °F - 42.1 °F 62% 30.02 in 10.0 mi WSW 3.5 mph - N/A   Partly Cloudy
7:53 PM 51.1 °F - 42.1 °F 71% 30.05 in 10.0 mi Calm Calm - N/A   Partly Cloudy
8:53 PM 46.9 °F - 42.1 °F 83% 30.05 in 10.0 mi Calm Calm - N/A   Clear
9:53 PM 46.0 °F - 41.0 °F 83% 30.06 in 10.0 mi Calm Calm - N/A   Clear
10:53 PM 44.1 °F - 41.0 °F 89% 30.05 in 10.0 mi Calm Calm - N/A   Clear
11:53 PM 42.1 °F - 39.9 °F 92% 30.06 in 10.0 mi Calm Calm - N/A   Clear